Time,TemperatureF,DewpointF,PressureIn,WindDirection,WindDirectionDegrees,WindSpeedMPH,WindSpeedGustMPH,Humidity,HourlyPrecipIn,Conditions,Clouds,dailyrainin,SolarRadiationWatts/m^2,SoftwareType,DateUTC
2013-06-15 00:02:00,64.0,52.0,-100.00,ESE,114,3.0,8.0,66,0.00,,,0.00,0.000000,,2013-06-15 05:02:00,
2013-06-15 00:12:00,62.0,53.0,-100.00,East,90,0.0,6.0,73,0.00,,,-99.99,0.000000,,2013-06-15 05:12:00,
2013-06-15 00:34:00,62.0,53.0,-100.00,East,90,0.0,6.0,73,0.00,,,-99.99,0.000000,,2013-06-15 05:34:00,
2013-06-15 00:43:00,62.0,53.0,-100.00,East,90,0.0,6.0,73,0.00,,,-99.99,0.000000,,2013-06-15 05:43:00,
2013-06-15 00:52:00,62.0,53.0,-100.00,East,90,0.0,6.0,73,0.00,,,-99.99,0.000000,,2013-06-15 05:52:00,
2013-06-15 01:02:00,62.0,53.0,-100.00,East,90,0.0,6.0,73,0.00,,,-99.99,0.000000,,2013-06-15 06:02:00,
2013-06-15 01:33:00,61.0,54.0,-100.00,South,184,0.0,3.0,77,0.00,,,0.00,0.000000,,2013-06-15 06:33:00,
2013-06-15 01:43:00,61.0,54.0,-100.00,South,184,0.0,3.0,77,0.00,,,0.00,0.000000,,2013-06-15 06:43:00,
2013-06-15 01:53:00,61.0,54.0,-100.00,South,184,0.0,3.0,77,0.00,,,0.00,0.000000,,2013-06-15 06:53:00,
2013-06-15 02:01:00,61.0,54.0,-100.00,South,184,0.0,3.0,77,0.00,,,0.00,0.000000,,2013-06-15 07:01:00,
2013-06-15 02:11:00,61.0,54.0,-100.00,South,184,0.0,3.0,77,0.00,,,0.00,0.000000,,2013-06-15 07:11:00,
2013-06-15 02:33:00,58.0,57.0,-100.00,WSW,241,2.0,4.0,95,0.15,,,0.15,0.000000,,2013-06-15 07:33:00,
2013-06-15 02:43:00,58.0,57.0,-100.00,WSW,241,2.0,4.0,95,0.15,,,0.15,0.000000,,2013-06-15 07:43:00,
2013-06-15 02:53:00,58.0,57.0,-100.00,WSW,241,2.0,4.0,95,0.15,,,0.15,0.000000,,2013-06-15 07:53:00,
2013-06-15 03:02:00,58.0,57.0,-100.00,WSW,241,2.0,4.0,95,0.15,,,0.15,0.000000,,2013-06-15 08:02:00,
2013-06-15 03:11:00,58.0,57.0,-100.00,WSW,241,2.0,4.0,95,0.15,,,0.15,0.000000,,2013-06-15 08:11:00,
2013-06-15 03:12:00,58.0,56.0,-100.00,WNW,298,3.0,5.0,94,0.06,,,0.21,0.000000,,2013-06-15 08:12:00,
2013-06-15 03:33:00,58.0,56.0,-100.00,WNW,298,3.0,5.0,94,0.06,,,0.21,0.000000,,2013-06-15 08:33:00,
2013-06-15 03:43:00,58.0,56.0,-100.00,WNW,298,3.0,5.0,94,0.06,,,0.21,0.000000,,2013-06-15 08:43:00,
2013-06-15 03:53:00,58.0,56.0,-100.00,WNW,298,3.0,5.0,94,0.06,,,0.21,0.000000,,2013-06-15 08:53:00,
2013-06-15 04:02:00,58.0,56.0,-100.00,WNW,298,3.0,5.0,94,0.06,,,0.21,0.000000,,2013-06-15 09:02:00,
2013-06-15 04:33:00,57.0,56.0,-100.00,SE,124,1.0,3.0,97,0.19,,,0.40,0.000000,,2013-06-15 09:33:00,
2013-06-15 04:43:00,57.0,56.0,-100.00,SE,124,1.0,3.0,97,0.19,,,0.40,0.000000,,2013-06-15 09:43:00,
2013-06-15 04:52:00,57.0,56.0,-100.00,SE,124,1.0,3.0,97,0.19,,,0.40,0.000000,,2013-06-15 09:52:00,
2013-06-15 05:02:00,57.0,56.0,-100.00,SE,124,1.0,3.0,97,0.19,,,0.40,0.000000,,2013-06-15 10:02:00,
2013-06-15 05:11:00,57.0,56.0,-100.00,SE,124,1.0,3.0,97,0.19,,,0.40,0.000000,,2013-06-15 10:11:00,
2013-06-15 05:34:00,57.0,56.0,-100.00,SSW,208,6.0,11.0,98,0.04,,,0.44,0.000000,,2013-06-15 10:34:00,
2013-06-15 05:44:00,57.0,56.0,-100.00,SSW,208,6.0,11.0,98,0.04,,,0.44,0.000000,,2013-06-15 10:44:00,
2013-06-15 05:53:00,57.0,56.0,-100.00,SSW,208,6.0,11.0,98,0.04,,,0.44,0.000000,,2013-06-15 10:53:00,
2013-06-15 06:02:00,57.0,56.0,-100.00,SSW,208,6.0,11.0,98,0.04,,,0.44,0.000000,,2013-06-15 11:02:00,
2013-06-15 06:11:00,57.0,56.0,-100.00,SSW,208,6.0,11.0,98,0.04,,,0.44,0.000000,,2013-06-15 11:11:00,
2013-06-15 06:12:00,59.0,58.0,-100.00,NNE,25,1.0,15.0,98,0.07,,,0.51,1.000000,,2013-06-15 11:12:00,
2013-06-15 06:33:00,59.0,58.0,-100.00,NNE,25,1.0,15.0,98,0.07,,,0.51,1.000000,,2013-06-15 11:33:00,
2013-06-15 06:43:00,59.0,58.0,-100.00,NNE,25,1.0,15.0,98,0.07,,,0.51,1.000000,,2013-06-15 11:43:00,
2013-06-15 06:53:00,59.0,58.0,-100.00,NNE,25,1.0,15.0,98,0.07,,,0.51,1.000000,,2013-06-15 11:53:00,
2013-06-15 07:01:00,59.0,58.0,-100.00,NNE,25,1.0,15.0,98,0.07,,,0.51,1.000000,,2013-06-15 12:01:00,
2013-06-15 07:33:00,59.0,58.0,-100.00,NE,56,3.0,9.0,98,0.07,,,0.58,16.000000,,2013-06-15 12:33:00,
2013-06-15 07:43:00,59.0,58.0,-100.00,NE,56,3.0,9.0,98,0.07,,,0.58,16.000000,,2013-06-15 12:43:00,
2013-06-15 07:52:00,59.0,58.0,-100.00,NE,56,3.0,9.0,98,0.07,,,0.58,16.000000,,2013-06-15 12:52:00,
2013-06-15 08:02:00,59.0,58.0,-100.00,NE,56,3.0,9.0,98,0.07,,,0.58,16.000000,,2013-06-15 13:02:00,
2013-06-15 08:11:00,59.0,58.0,-100.00,NE,56,3.0,9.0,98,0.07,,,0.58,16.000000,,2013-06-15 13:11:00,
2013-06-15 08:12:00,62.0,61.0,-100.00,ENE,78,2.0,8.0,98,0.00,,,-99.99,95.000000,,2013-06-15 13:12:00,
2013-06-15 08:33:00,62.0,61.0,-100.00,ENE,78,2.0,8.0,98,0.00,,,-99.99,95.000000,,2013-06-15 13:33:00,
2013-06-15 08:44:00,62.0,61.0,-100.00,ENE,78,2.0,8.0,98,0.00,,,-99.99,95.000000,,2013-06-15 13:44:00,
2013-06-15 08:53:00,62.0,61.0,-100.00,ENE,78,2.0,8.0,98,0.00,,,-99.99,95.000000,,2013-06-15 13:53:00,
2013-06-15 09:01:00,62.0,61.0,-100.00,ENE,78,2.0,8.0,98,0.00,,,-99.99,95.000000,,2013-06-15 14:01:00,
2013-06-15 09:34:00,65.0,62.0,-100.00,ESE,119,2.0,5.0,89,0.00,,,0.58,262.000000,,2013-06-15 14:34:00,
2013-06-15 09:43:00,65.0,62.0,-100.00,ESE,119,2.0,5.0,89,0.00,,,0.58,262.000000,,2013-06-15 14:43:00,
2013-06-15 09:54:00,65.0,62.0,-100.00,ESE,119,2.0,5.0,89,0.00,,,0.58,262.000000,,2013-06-15 14:54:00,
2013-06-15 10:02:00,65.0,62.0,-100.00,ESE,119,2.0,5.0,89,0.00,,,0.58,262.000000,,2013-06-15 15:02:00,
2013-06-15 10:11:00,65.0,62.0,-100.00,ESE,119,2.0,5.0,89,0.00,,,0.58,262.000000,,2013-06-15 15:11:00,
2013-06-15 10:33:00,65.0,62.0,-100.00,SSE,152,2.0,5.0,91,0.00,,,0.58,200.000000,,2013-06-15 15:33:00,
2013-06-15 10:43:00,65.0,62.0,-100.00,SSE,152,2.0,5.0,91,0.00,,,0.58,200.000000,,2013-06-15 15:43:00,
2013-06-15 10:53:00,65.0,62.0,-100.00,SSE,152,2.0,5.0,91,0.00,,,0.58,200.000000,,2013-06-15 15:53:00,
2013-06-15 11:01:00,65.0,62.0,-100.00,SSE,152,2.0,5.0,91,0.00,,,0.58,200.000000,,2013-06-15 16:01:00,
2013-06-15 11:11:00,65.0,62.0,-100.00,SSE,152,2.0,5.0,91,0.00,,,0.58,200.000000,,2013-06-15 16:11:00,
2013-06-15 11:12:00,70.0,64.0,-100.00,South,186,4.0,8.0,82,0.00,,,0.58,501.000000,,2013-06-15 16:12:00,
2013-06-15 11:33:00,70.0,64.0,-100.00,South,186,4.0,8.0,82,0.00,,,0.58,501.000000,,2013-06-15 16:33:00,
2013-06-15 11:43:00,70.0,64.0,-100.00,South,186,4.0,8.0,82,0.00,,,0.58,501.000000,,2013-06-15 16:43:00,
2013-06-15 11:53:00,70.0,64.0,-100.00,South,186,4.0,8.0,82,0.00,,,0.58,501.000000,,2013-06-15 16:53:00,
2013-06-15 12:02:00,70.0,64.0,-100.00,South,186,4.0,8.0,82,0.00,,,0.58,501.000000,,2013-06-15 17:02:00,
2013-06-15 12:12:00,71.0,64.0,-100.00,SSW,202,5.0,11.0,78,0.00,,,0.58,550.000000,,2013-06-15 17:12:00,
2013-06-15 12:32:00,71.0,64.0,-100.00,SSW,202,5.0,11.0,78,0.00,,,0.58,550.000000,,2013-06-15 17:32:00,
2013-06-15 12:43:00,71.0,64.0,-100.00,SSW,202,5.0,11.0,78,0.00,,,0.58,550.000000,,2013-06-15 17:43:00,
2013-06-15 12:52:00,71.0,64.0,-100.00,SSW,202,5.0,11.0,78,0.00,,,0.58,550.000000,,2013-06-15 17:52:00,
2013-06-15 13:01:00,71.0,64.0,-100.00,SSW,202,5.0,11.0,78,0.00,,,0.58,550.000000,,2013-06-15 18:01:00,
2013-06-15 13:33:00,73.0,66.0,-100.00,SSW,197,5.0,9.0,78,0.00,,,0.58,369.000000,,2013-06-15 18:33:00,
2013-06-15 13:43:00,73.0,66.0,-100.00,SSW,197,5.0,9.0,78,0.00,,,0.58,369.000000,,2013-06-15 18:43:00,
2013-06-15 13:53:00,73.0,66.0,-100.00,SSW,197,5.0,9.0,78,0.00,,,0.58,369.000000,,2013-06-15 18:53:00,
2013-06-15 14:01:00,73.0,66.0,-100.00,SSW,197,5.0,9.0,78,0.00,,,0.58,369.000000,,2013-06-15 19:01:00,
2013-06-15 14:11:00,73.0,66.0,-100.00,SSW,197,5.0,9.0,78,0.00,,,0.58,369.000000,,2013-06-15 19:11:00,
2013-06-15 14:33:00,76.0,67.0,-100.00,SSW,192,5.0,9.0,74,0.00,,,0.58,451.000000,,2013-06-15 19:33:00,
2013-06-15 14:43:00,76.0,67.0,-100.00,SSW,192,5.0,9.0,74,0.00,,,0.58,451.000000,,2013-06-15 19:43:00,
2013-06-15 14:53:00,76.0,67.0,-100.00,SSW,192,5.0,9.0,74,0.00,,,0.58,451.000000,,2013-06-15 19:53:00,
2013-06-15 15:02:00,76.0,67.0,-100.00,SSW,192,5.0,9.0,74,0.00,,,0.58,451.000000,,2013-06-15 20:02:00,
2013-06-15 15:11:00,76.0,67.0,-100.00,SSW,192,5.0,9.0,74,0.00,,,0.58,451.000000,,2013-06-15 20:11:00,
2013-06-15 15:12:00,78.0,67.0,-100.00,SW,226,3.0,10.0,68,0.00,,,0.58,522.000000,,2013-06-15 20:12:00,
2013-06-15 15:33:00,78.0,67.0,-100.00,SW,226,3.0,10.0,68,0.00,,,0.58,522.000000,,2013-06-15 20:33:00,
2013-06-15 15:43:00,78.0,67.0,-100.00,SW,226,3.0,10.0,68,0.00,,,0.58,522.000000,,2013-06-15 20:43:00,
2013-06-15 15:53:00,78.0,67.0,-100.00,SW,226,3.0,10.0,68,0.00,,,0.58,522.000000,,2013-06-15 20:53:00,
2013-06-15 16:01:00,78.0,67.0,-100.00,SW,226,3.0,10.0,68,0.00,,,0.58,522.000000,,2013-06-15 21:01:00,
2013-06-15 16:34:00,79.0,65.0,-100.00,WSW,244,4.0,10.0,63,0.00,,,0.58,433.000000,,2013-06-15 21:34:00,
2013-06-15 16:42:00,79.0,65.0,-100.00,WSW,244,4.0,10.0,63,0.00,,,0.58,433.000000,,2013-06-15 21:42:00,
2013-06-15 16:53:00,79.0,65.0,-100.00,WSW,244,4.0,10.0,63,0.00,,,0.58,433.000000,,2013-06-15 21:53:00,
2013-06-15 17:01:00,79.0,65.0,-100.00,WSW,244,4.0,10.0,63,0.00,,,0.58,433.000000,,2013-06-15 22:01:00,
2013-06-15 17:11:00,79.0,65.0,-100.00,WSW,244,4.0,10.0,63,0.00,,,0.58,433.000000,,2013-06-15 22:11:00,
2013-06-15 17:12:00,79.0,66.0,-100.00,SW,226,2.0,10.0,64,0.00,,,0.58,360.000000,,2013-06-15 22:12:00,
2013-06-15 17:33:00,79.0,66.0,-100.00,SW,226,2.0,10.0,64,0.00,,,0.58,360.000000,,2013-06-15 22:33:00,
2013-06-15 17:43:00,79.0,66.0,-100.00,SW,226,2.0,10.0,64,0.00,,,0.58,360.000000,,2013-06-15 22:43:00,
2013-06-15 17:53:00,79.0,66.0,-100.00,SW,226,2.0,10.0,64,0.00,,,0.58,360.000000,,2013-06-15 22:53:00,
2013-06-15 18:02:00,79.0,66.0,-100.00,SW,226,2.0,10.0,64,0.00,,,0.58,360.000000,,2013-06-15 23:02:00,
2013-06-15 18:33:00,78.0,65.0,-100.00,SSW,204,5.0,8.0,64,0.00,,,0.58,262.000000,,2013-06-15 23:33:00,
2013-06-15 18:43:00,78.0,65.0,-100.00,SSW,204,5.0,8.0,64,0.00,,,0.58,262.000000,,2013-06-15 23:43:00,
2013-06-15 18:53:00,78.0,65.0,-100.00,SSW,204,5.0,8.0,64,0.00,,,0.58,262.000000,,2013-06-15 23:53:00,
2013-06-15 19:01:00,78.0,65.0,-100.00,SSW,204,5.0,8.0,64,0.00,,,0.58,262.000000,,2013-06-16 00:01:00,
2013-06-15 19:11:00,78.0,65.0,-100.00,SSW,204,5.0,8.0,64,0.00,,,0.58,262.000000,,2013-06-16 00:11:00,
2013-06-15 19:43:00,73.0,70.0,-100.00,ESE,109,1.0,8.0,91,0.00,,,-99.99,51.000000,,2013-06-16 00:43:00,
2013-06-15 19:52:00,73.0,70.0,-100.00,ESE,109,1.0,8.0,91,0.00,,,-99.99,51.000000,,2013-06-16 00:52:00,
2013-06-15 20:01:00,73.0,70.0,-100.00,ESE,109,1.0,8.0,91,0.00,,,-99.99,51.000000,,2013-06-16 01:01:00,
2013-06-15 20:11:00,73.0,70.0,-100.00,ESE,109,1.0,8.0,91,0.00,,,-99.99,51.000000,,2013-06-16 01:11:00,
2013-06-15 20:12:00,71.0,70.0,-100.00,WNW,282,4.0,9.0,96,0.13,,,0.71,3.000000,,2013-06-16 01:12:00,
2013-06-15 20:33:00,71.0,70.0,-100.00,WNW,282,4.0,9.0,96,0.13,,,0.71,3.000000,,2013-06-16 01:33:00,
2013-06-15 20:43:00,71.0,70.0,-100.00,WNW,282,4.0,9.0,96,0.13,,,0.71,3.000000,,2013-06-16 01:43:00,
2013-06-15 20:53:00,71.0,70.0,-100.00,WNW,282,4.0,9.0,96,0.13,,,0.71,3.000000,,2013-06-16 01:53:00,
2013-06-15 21:02:00,71.0,70.0,-100.00,WNW,282,4.0,9.0,96,0.13,,,0.71,3.000000,,2013-06-16 02:02:00,
2013-06-15 21:12:00,65.0,64.0,-100.00,WNW,303,6.0,27.0,95,0.33,,,1.04,0.000000,,2013-06-16 02:12:00,
2013-06-15 21:33:00,65.0,64.0,-100.00,WNW,303,6.0,27.0,95,0.33,,,1.04,0.000000,,2013-06-16 02:33:00,
2013-06-15 21:43:00,65.0,64.0,-100.00,WNW,303,6.0,27.0,95,0.33,,,1.04,0.000000,,2013-06-16 02:43:00,
2013-06-15 21:53:00,65.0,64.0,-100.00,WNW,303,6.0,27.0,95,0.33,,,1.04,0.000000,,2013-06-16 02:53:00,
2013-06-15 22:02:00,65.0,64.0,-100.00,WNW,303,6.0,27.0,95,0.33,,,1.04,0.000000,,2013-06-16 03:02:00,
2013-06-15 22:12:00,63.0,62.0,-100.00,SSW,207,1.0,6.0,96,0.00,,,1.04,0.000000,,2013-06-16 03:12:00,
2013-06-15 22:34:00,63.0,62.0,-100.00,SSW,207,1.0,6.0,96,0.00,,,1.04,0.000000,,2013-06-16 03:34:00,
2013-06-15 22:43:00,63.0,62.0,-100.00,SSW,207,1.0,6.0,96,0.00,,,1.04,0.000000,,2013-06-16 03:43:00,
2013-06-15 22:53:00,63.0,62.0,-100.00,SSW,207,1.0,6.0,96,0.00,,,1.04,0.000000,,2013-06-16 03:53:00,
2013-06-15 23:02:00,63.0,62.0,-100.00,SSW,207,1.0,6.0,96,0.00,,,1.04,0.000000,,2013-06-16 04:02:00,
2013-06-15 23:12:00,61.0,60.0,-100.00,SE,127,1.0,3.0,98,0.00,,,1.04,0.000000,,2013-06-16 04:12:00,
2013-06-15 23:34:00,61.0,60.0,-100.00,SE,127,1.0,3.0,98,0.00,,,1.04,0.000000,,2013-06-16 04:34:00,
2013-06-15 23:43:00,61.0,60.0,-100.00,SE,127,1.0,3.0,98,0.00,,,1.04,0.000000,,2013-06-16 04:43:00,
2013-06-15 23:53:00,61.0,60.0,-100.00,SE,127,1.0,3.0,98,0.00,,,1.04,0.000000,,2013-06-16 04:53:00,